[[{"header":{"parameterUnit":"m.s-1","parameterCategory":1,"la1":30.2991,"la2":30.254,"lo1":-89.0895,"lo2":-89.0444,"dy":0.0017,"dx":0.0017,"nx":28,"ny":28,"refTime":"2023-07-19T09:00:00:Z","depth":0,"parameterNumber":2,"parameterNumberName":"U-component_of_WINDS"},"data":[0,0,0,0,0,0,0,0,0,0,0,0,0,0,0,0,0,0,0,0,0,0,0,0,0,0,0,0,0,0,0,0,0,0,0,0,0,0,0,0,0,0,0,0,0,0,0,0,0,0,0,0,0,0,0,0,0,0,0.3398,0.3399,0,0.346,0.3461,0.3461,0.3464,0.3463,0.3462,0.3462,0.3524,0.3526,0.3529,0,0,0,0,0,0,0,0,0,0,0,0,0,0.328,0.3282,0.3398,0.3399,0.34,0.346,0.3461,0.3462,0.3464,0.3463,0.3462,0.3461,0.3523,0.3526,0.3529,0,0,0,0,0,0,0,0,0,0,0,0,0,0.3335,0.3283,0.3398,0.3408,0.341,0.346,0.3461,0.3462,0.3464,0.3463,0.3462,0.3461,0.3522,0.3526,0.3529,0.3573,0,0,0.354,0.3542,0,0,0,0,0,0,0,0,0.3332,0.334,0.3406,0.3407,0.3409,0.3453,0.3442,0.3499,0.3465,0.3443,0.3462,0.3461,0.3501,0.3507,0.3521,0.3576,0.3579,0.354,0.3543,0.3544,0.3545,0,0,0,0,0,0,0,0.3328,0.3337,0.3422,0.3407,0.3409,0.3409,0.3416,0.3453,0.3478,0.3445,0.3446,0.3453,0.3502,0.3517,0.3522,0.358,0.354,0.3543,0.3546,0.3547,0.3673,0.3675,0,0,0,0,0,0,0.3323,0.3334,0.342,0.3424,0.3367,0.3412,0.3419,0.344,0.3477,0.3482,0.3454,0.3453,0.3512,0.3518,0.3524,0.3577,0.3544,0.3547,0.3549,0.3672,0.3674,0.3675,0,0,0,0,0,0,0.332,0.3331,0.3418,0.3379,0.339,0.3415,0.3438,0.3442,0.3457,0.3484,0.3488,0.3465,0.3511,0.3519,0.3561,0.358,0.3549,0.3552,0.3671,0.3673,0.3674,0.3684,0,0,0,0,0,0,0.3317,0.333,0.3347,0.338,0.3392,0.3454,0.344,0.3444,0.3463,0.3463,0.3495,0.35,0.3511,0.3556,0.3564,0.3584,0.3555,0.3669,0.3671,0.3674,0.3683,0.3686,0.369,0,0,0,0,0,0.3313,0.3347,0.3348,0.3358,0.3415,0.3455,0.3462,0.3475,0.3465,0.3482,0.3499,0.3499,0.3576,0.356,0.357,0.3591,0.3668,0.3671,0.3674,0.3681,0.3686,0.369,0,0,0,0,0,0,0.3315,0.3352,0.3353,0.3399,0.3424,0.3456,0.3478,0.348,0.3508,0.3506,0.352,0.3527,0.3568,0.3584,0.3565,0.3635,0.3621,0.3626,0.3623,0.3628,0.3631,0.3627,0.3558,0,0,0,0,0,0.3321,0.3352,0.3382,0.3419,0.3432,0.3453,0.3471,0.3478,0.3505,0.3515,0.3535,0.3561,0.3591,0.361,0.3639,0.3685,0.3692,0.3704,0.3708,0.371,0.3714,0.3739,0.3745,0.3684,0.3684,0.3684,0,0,0.3334,0.3358,0.3376,0.3421,0.3441,0.3472,0.3462,0.3494,0.3517,0.352,0.356,0.3576,0.3605,0.3649,0.3669,0.3663,0.3733,0.3714,0.3716,0.3719,0.3743,0.3748,0.3753,0.3686,0.3686,0.3685,0,0,0.3373,0.3394,0.3428,0.3448,0.3479,0.3493,0.3501,0.3532,0.3543,0.3584,0.3586,0.3613,0.3665,0.3685,0.3702,0.3748,0.3749,0.3758,0.3776,0.38,0.3805,0.3809,0.3825,0.3831,0.3761,0.3761,0.3762,0,0.3384,0.3431,0.3444,0.3477,0.3497,0.3501,0.3535,0.3554,0.3593,0.3606,0.3598,0.3663,0.3683,0.3731,0.3742,0.3756,0.3765,0.3754,0.3803,0.3808,0.3812,0.3827,0.3833,0.3762,0.3762,0.3762,0.3762,0,0.3444,0.3476,0.3499,0.3537,0.3559,0.3592,0.361,0.363,0.3636,0.365,0.3691,0.3715,0.3749,0.3761,0.3767,0.381,0.3805,0.38,0.3787,0.3818,0.3833,0.3839,0.3764,0.3763,0.3763,0.3763,0,0,0.3486,0.353,0.3539,0.3556,0.359,0.3615,0.3648,0.3682,0.3699,0.3725,0.3753,0.3796,0.3792,0.3811,0.3819,0.384,0.3875,0.3833,0.3834,0.3839,0.3923,0.3926,0.3933,0.3875,0.3876,0.3877,0.3921,0,0.3528,0.3587,0.36,0.3651,0.3681,0.3685,0.3714,0.3738,0.3752,0.3779,0.3794,0.3824,0.3817,0.3828,0.3849,0.3866,0.3892,0.3863,0.39,0.3902,0.3893,0.3941,0.3944,0.3984,0.3926,0.3927,0.3928,0,0.3585,0.3613,0.3667,0.3697,0.371,0.3736,0.3767,0.3793,0.382,0.3829,0.385,0.3856,0.389,0.3875,0.3921,0.3902,0.3918,0.3928,0.393,0.3934,0.3917,0.3945,0.3997,0.4003,0.3937,0.3937,0.3936,0,0.3609,0.3661,0.37,0.3714,0.3751,0.3768,0.3784,0.381,0.3829,0.3857,0.3869,0.39,0.3917,0.394,0.3954,0.3942,0.3999,0.3986,0.4007,0.4007,0.4019,0.4018,0.4073,0.403,0.403,0.4029,0.4029,0,0.3654,0.3687,0.3711,0.3735,0.3772,0.3786,0.3822,0.3837,0.386,0.3887,0.3893,0.3917,0.3934,0.3961,0.3972,0.4008,0.4016,0.4023,0.4026,0.4023,0.4022,0.4033,0.4031,0.4031,0.4031,0.403,0.403,0,0.3688,0.3705,0.3748,0.3779,0.3788,0.3813,0.3839,0.3863,0.3877,0.391,0.3919,0.3941,0.3973,0.3989,0.4028,0.4036,0.4077,0.4078,0.4068,0.4069,0.4089,0.4087,0.4154,0.4163,0.4113,0.4114,0.4114,0,0.3715,0.3741,0.3775,0.3793,0.381,0.3839,0.3859,0.3874,0.3894,0.3926,0.3945,0.3978,0.4004,0.4055,0.4074,0.4104,0.4106,0.4127,0.411,0.4106,0.4106,0.4104,0.4106,0.413,0.413,0.4131,0.4131,0,0.3762,0.3769,0.3798,0.3829,0.3853,0.3878,0.3903,0.3918,0.3937,0.3959,0.3992,0.4012,0.4053,0.4085,0.4117,0.4132,0.4135,0.4136,0.4143,0.414,0.4133,0.4136,0.4075,0.4135,0.4134,0.4134,0.4134,0.4134,0.3793,0.3816,0.3843,0.3875,0.3895,0.3918,0.3941,0.3958,0.3986,0.4021,0.4028,0.4062,0.4088,0.4131,0.4148,0.4175,0.417,0.418,0.4182,0.4184,0.4185,0.4129,0.4181,0.4181,0.4181,0.4181,0.4181,0,0.384,0.3858,0.3886,0.3921,0.3946,0.3947,0.3974,0.3995,0.4025,0.405,0.4076,0.4113,0.4144,0.4166,0.4197,0.4215,0.4216,0.4222,0.4221,0.4224,0.4188,0.4179,0.422,0.422,0.422,0.422,0.422,0.422,0.3867,0.3905,0.3916,0.3964,0.3981,0.4016,0.4032,0.4053,0.4072,0.4114,0.414,0.4154,0.4177,0.421,0.4238,0.4244,0.4255,0.4261,0.4266,0.4231,0.4227,0.4223,0.4215,0.4263,0.4263,0.4301,0.4301,0.4301]},{"header":{"parameterUnit":"m.s-1","parameterCategory":1,"la1":30.2991,"la2":30.254,"lo1":-89.0895,"lo2":-89.0444,"dy":0.0017,"dx":0.0017,"nx":28,"ny":28,"refTime":"2023-07-19T09:00:00:Z","depth":0,"parameterNumber":3,"parameterNumberName":"V-component_of_WINDS"},"data":[0,0,0,0,0,0,0,0,0,0,0,0,0,0,0,0,0,0,0,0,0,0,0,0,0,0,0,0,0,0,0,0,0,0,0,0,0,0,0,0,0,0,0,0,0,0,0,0,0,0,0,0,0,0,0,0,0,0,3.4478,3.4477,0,3.4416,3.4416,3.4415,3.4296,3.4294,3.4292,3.429,3.4228,3.4229,3.4229,0,0,0,0,0,0,0,0,0,0,0,0,0,3.4495,3.4495,3.4478,3.4477,3.4476,3.4416,3.4416,3.4415,3.4297,3.4294,3.4291,3.4289,3.4228,3.4229,3.423,0,0,0,0,0,0,0,0,0,0,0,0,0,3.4466,3.4495,3.4478,3.441,3.4404,3.4417,3.4416,3.4415,3.4297,3.4294,3.429,3.4287,3.4228,3.4229,3.423,3.4304,0,0,3.4232,3.4232,0,0,0,0,0,0,0,0,3.4468,3.4466,3.4421,3.4415,3.4408,3.436,3.4399,3.4378,3.4298,3.4338,3.429,3.4285,3.4275,3.4272,3.4268,3.4301,3.4299,3.4232,3.4233,3.4233,3.4233,0,0,0,0,0,0,0,3.447,3.4468,3.4454,3.4421,3.4412,3.4383,3.4375,3.4394,3.4327,3.4334,3.4325,3.432,3.4271,3.4268,3.4266,3.4298,3.4232,3.4233,3.4233,3.4234,3.4387,3.4391,0,0,0,0,0,0,3.4482,3.447,3.4456,3.4452,3.443,3.4386,3.4377,3.4379,3.4326,3.4315,3.4323,3.4314,3.4268,3.4265,3.4263,3.4345,3.4233,3.4234,3.4234,3.4384,3.4388,3.4392,0,0,0,0,0,0,3.4482,3.4481,3.4458,3.4458,3.4453,3.4389,3.4393,3.438,3.4376,3.4318,3.4305,3.4332,3.4265,3.4262,3.4294,3.4342,3.4234,3.4235,3.438,3.4385,3.439,3.4512,0,0,0,0,0,0,3.4483,3.4482,3.451,3.446,3.4454,3.449,3.4396,3.4381,3.4378,3.4366,3.4323,3.4312,3.4262,3.4294,3.4295,3.4341,3.4235,3.4375,3.4382,3.4389,3.4503,3.4521,3.4536,0,0,0,0,0,3.4484,3.4547,3.4512,3.4511,3.4487,3.4493,3.449,3.443,3.4382,3.4409,3.4371,3.4314,3.4337,3.4298,3.4299,3.4345,3.4372,3.438,3.4388,3.4496,3.4518,3.4536,0,0,0,0,0,0,3.4605,3.454,3.4499,3.4548,3.4527,3.4473,3.4505,3.4455,3.4448,3.4437,3.4365,3.4356,3.4398,3.4375,3.4333,3.4414,3.4345,3.4354,3.4427,3.4447,3.4463,3.4467,3.4236,0,0,0,0,0,3.4638,3.4648,3.459,3.4639,3.463,3.457,3.4571,3.4527,3.4502,3.4493,3.4458,3.4437,3.4439,3.4442,3.4441,3.45,3.4488,3.4532,3.4549,3.4562,3.457,3.4598,3.4617,3.4419,3.4419,3.4419,0,0,3.4705,3.467,3.4681,3.4662,3.4641,3.4653,3.4563,3.4581,3.4589,3.4496,3.4523,3.4497,3.4469,3.4514,3.4533,3.4497,3.4622,3.4573,3.4584,3.4584,3.4609,3.4627,3.4644,3.4424,3.4423,3.4422,0,0,3.4832,3.4808,3.4844,3.4825,3.4793,3.4752,3.4762,3.4715,3.4694,3.472,3.465,3.466,3.4665,3.4647,3.4639,3.476,3.4706,3.4762,3.4846,3.4874,3.489,3.4903,3.4945,3.4961,3.477,3.4771,3.4771,0,3.4919,3.4935,3.487,3.4891,3.4885,3.48,3.4837,3.4821,3.4791,3.4789,3.4749,3.4753,3.4729,3.4768,3.4797,3.4794,3.4802,3.4766,3.4893,3.4906,3.4917,3.4956,3.4972,3.4777,3.4777,3.4776,3.4775,0,3.5043,3.5055,3.5088,3.506,3.5058,3.5087,3.5027,3.5032,3.4989,3.4953,3.498,3.4948,3.4938,3.4944,3.4903,3.4978,3.4956,3.4906,3.4835,3.4944,3.4979,3.4994,3.4787,3.4785,3.4783,3.4781,0,0,3.5244,3.518,3.5193,3.5179,3.5137,3.5146,3.5171,3.5161,3.5166,3.5149,3.5167,3.5174,3.5127,3.5118,3.5073,3.5098,3.5194,3.5044,3.5042,3.5072,3.5273,3.531,3.5329,3.5159,3.5161,3.5163,3.5275,0,3.5361,3.54,3.5342,3.5394,3.5404,3.5324,3.5345,3.5323,3.529,3.5294,3.5257,3.5262,3.5201,3.5194,3.5216,3.5178,3.5233,3.5169,3.5175,3.5176,3.5183,3.5347,3.5387,3.5494,3.5289,3.5291,3.5293,0,3.5503,3.5491,3.5544,3.5498,3.55,3.5521,3.5506,3.5511,3.5484,3.5458,3.5447,3.5394,3.5416,3.5348,3.5376,3.5334,3.5333,3.5315,3.5317,3.5314,3.524,3.5347,3.5527,3.5542,3.5314,3.5312,3.5311,0,3.5642,3.564,3.5671,3.5661,3.561,3.5626,3.5605,3.5574,3.5571,3.5559,3.5556,3.5547,3.5542,3.5536,3.5481,3.5438,3.5516,3.5444,3.5494,3.5496,3.5513,3.5513,3.5693,3.5516,3.5515,3.5515,3.5515,0,3.5778,3.5813,3.5732,3.5751,3.5788,3.5722,3.576,3.5731,3.5704,3.5716,3.5647,3.566,3.5588,3.5593,3.5551,3.5579,3.5578,3.5557,3.5545,3.5562,3.5565,3.556,3.555,3.5519,3.5518,3.5518,3.5517,0,3.594,3.5887,3.5915,3.5864,3.5852,3.5881,3.5837,3.5852,3.5815,3.583,3.583,3.5772,3.5774,3.5719,3.5711,3.5682,3.5729,3.5705,3.5738,3.573,3.5782,3.5778,3.5965,3.5986,3.5797,3.5799,3.58,0,3.6029,3.6054,3.6005,3.6008,3.599,3.5996,3.5992,3.5928,3.5927,3.5898,3.5917,3.5913,3.5906,3.5913,3.587,3.5862,3.5836,3.5902,3.5835,3.5851,3.5835,3.5834,3.5835,3.5916,3.5919,3.5921,3.5922,0,3.6193,3.6166,3.6163,3.6151,3.6149,3.6137,3.612,3.6126,3.6057,3.6059,3.606,3.6055,3.6045,3.6042,3.6027,3.6005,3.5952,3.5944,3.5955,3.5972,3.599,3.5979,3.5775,3.594,3.5938,3.5937,3.5936,3.5935,3.632,3.6338,3.6306,3.6305,3.6286,3.6272,3.6283,3.6247,3.6246,3.6233,3.6196,3.6203,3.6174,3.6147,3.6131,3.6135,3.6102,3.6119,3.6122,3.6127,3.6136,3.5991,3.6132,3.6132,3.6131,3.6131,3.613,0,3.6479,3.6454,3.6454,3.6433,3.6432,3.6382,3.6361,3.6364,3.637,3.6348,3.6343,3.6343,3.634,3.6296,3.6287,3.6299,3.6274,3.6299,3.6297,3.6292,3.6167,3.6158,3.6319,3.6319,3.6319,3.6319,3.6319,3.6319,3.6561,3.6588,3.6557,3.6574,3.6549,3.6555,3.6547,3.6533,3.6515,3.6518,3.6515,3.6486,3.6455,3.6443,3.6438,3.6425,3.6424,3.6457,3.6436,3.632,3.6301,3.6284,3.6274,3.6458,3.6458,3.656,3.6561,3.6562]}]]